SL-8 DEB, 1478

Orbit data source: Space-Track

SL-8 DEB, 1478 is space debris in LEO originally from a launch on Mon, 15 Mar 1965 UTC launched from the Tyuratam Missile And Space Complex (TTMTR). Debris objects in space refer to the collection of defunct objects orbiting the Earth. Examples of debris include non-operational satellites, rocket bodies, and fragments generated from explosions, collisions, or faulty payload assembly.

Loading next visibility...
Identifier
1478, 1965-020BC
Orbit
LEO
Country
Flag of CISCIS
Related business
Manufacturer
Unknown
Mission
Spacecraft
Bus & Motor
Unknown
Mass
Unknown
Launch date (UTC)
1965-03-15 (61 years ago)
Launch vehicle
Unknown
Launch site
Tyuratam Missile And Space Complex (TTMTR)
Object type
Payload
Rocket body
Debris
Shape & HBR
Unknown shape, 0.1 m
Radar Cross Section
Medium (>0.1 m² and <1 m²)

Expand to show TLE details & history
Last TLE update: 23 hours ago

TLE from 23 hours ago
0 SL-8 DEB
1 01478U 65020BC  25302.93413569  .00007233  00000-0  34172-2 0  9999
2 01478  56.0819  22.5726 0593463 217.7476 138.0425 13.54581364893653
Epoch: 2025-10-29T22:25Z
TLE epoch observation values (Epoch: 2025-10-29T22:25:09.323Z)
Latitude
-0.00001°
Longitude
7.7836°
Altitude
1,395.582 km
Speed
6.998 km/s
True Right ascension
01h 30m 17s
True Declination
0° 00' 00"
Sunlit
Object was in full shadow at epoch
Visualization orbit readout
Latitude
Unknown
Longitude
Unknown
Altitude
Unknown
Speed
Unknown
Apparent Right ascension
Unknown
Apparent Declination
Unknown
Sunlit
N/A
Visualization observer readout
Local Sidereal Time
17:13:04
Azimuth
Unknown
Elevation
Unknown
Doppler factor
Unknown
Orbital elements
Apogee altitude
1,496.403 km
Perigee altitude
614.114 km
Semi-major axis
7,433.396 km
Eccentricity
0.05935
Inclination
56.0819°
RAAN
22.5726°
Arg. of periapsis
217.7476°
True anomaly
142.34704°
Mean anomaly
138.0425°
Eccentric anomaly
140.21823°
Mean motion
3.38659 °/min
Orbital period
106.3 mins
BSTAR
0.0034172
Loading maneuver chart data...
Computing Atmospheric mass density...
Loading historical data...
Loading historical data...
Loading historical data...
Loading historical data...
Loading historical data...
Loading historical data...
Loading historical data...

Documentation

Showing up to 5 results
|